Flag for Germany Weather past 2 weeks in Augsburg, Bavaria, Germany

Now
68 °F

Sunny.


Feels Like: 68 °F
Forecast: 59 / 71 °F
Wind: 3 mph from Northeast

Location: Augsburg Airport

Current Time: Jul 28, 2014 at 11:10:25 PM

Latest Report: Jul 28, 2014 at 8:50 PM


Visibility: 10 mi

Pressure: 29.80 "Hg

Humidity: 94%

Dew point: 66 °F

Location of AugsburgLocation

Historic Weather in Augsburg — Graph

°F

Augsburg temperature yesterday

Maximum temperature yesterday: 77 °F (at 2:50 PM)
Minimum temperature yesterday: 61 °F (at 6:50 PM)
Average temperature yesterday: 69 °F

Past Weeks' High & Low Weather Summary

 TemperatureHumidityPressure
High91 °F (Jul 19, 5:20 PM)100% (Jul 14, 6:50 AM)30.21 "Hg (Jul 14, 6:50 AM)
Low52 °F (Jul 16, 6:20 AM)22% (Jul 19, 4:50 PM)29.80 "Hg (Jul 28, 5:50 PM)
Average72 °F64%30.00 "Hg
* Reported Jul 13 8:20 PM — Jul 28 8:50 PM, Augsburg, Weather by CustomWeather, © 2014

Note: Actual official high and low records may vary slightly from our data, if they occured in-between our weather recording intervals... More about our weather records

Advertising

Augsburg weather history for previous 24 hours

 ConditionsComfort  
Time TempWeatherWind HumidityBarometerVisibility
8:50 PM
Jul 28
68 °FSunny.3 mph94%29.80 "Hg10 mi
8:20 PM72 °FSunny.3 mph73%29.80 "Hg10 mi
7:50 PM75 °FSunny.3 mph57%29.80 "Hg10 mi
7:20 PM77 °FPassing clouds.6 mph54%29.80 "HgN/A
6:50 PM75 °FPassing clouds.7 mph61%29.80 "HgN/A
6:20 PM77 °FPassing clouds.8 mph57%29.80 "HgN/A
5:50 PM77 °FPassing clouds.6 mph57%29.80 "HgN/A
5:20 PM79 °FPassing clouds.5 mph51%29.83 "HgN/A
4:50 PM77 °FPassing clouds.7 mph57%29.83 "HgN/A
4:20 PM77 °FPassing clouds.6 mph54%29.83 "HgN/A
3:50 PM79 °FPassing clouds.3 mph54%29.83 "HgN/A
3:20 PM77 °FPassing clouds.6 mph54%29.86 "HgN/A
2:50 PM75 °FPassing clouds.6 mph61%29.86 "HgN/A
2:20 PM75 °FPassing clouds.5 mph57%29.89 "HgN/A
1:50 PM73 °FPassing clouds.5 mph61%29.89 "HgN/A
1:20 PM73 °FScattered clouds.5 mph65%29.92 "HgN/A
12:50 PM72 °FScattered clouds.5 mph78%29.92 "HgN/A
12:20 PM70 °FScattered clouds.6 mph83%29.92 "Hg6 mi
11:50 AM68 °FScattered clouds.5 mph88%29.92 "Hg6 mi
11:20 AM68 °FScattered clouds.5 mph88%29.92 "Hg5 mi
10:50 AM66 °FScattered clouds.6 mph94%29.95 "Hg5 mi
10:20 AM66 °FScattered clouds.6 mph94%29.95 "Hg4 mi
9:50 AM66 °FScattered clouds.5 mph94%29.95 "Hg5 mi
9:20 AM66 °FScattered clouds.3 mph88%29.95 "Hg5 mi
8:50 AM64 °FScattered clouds.3 mph100%29.95 "Hg5 mi
8:20 AM64 °FPassing clouds.3 mph94%29.95 "HgN/A
7:50 AM63 °FSunny.3 mph100%29.95 "Hg10 mi
7:20 AM59 °FSunny.5 mph100%29.98 "Hg10 mi
6:50 AM59 °FClear.2 mph100%29.98 "Hg5 mi
6:20 AM59 °FClear.2 mph100%29.98 "Hg5 mi
Weather by CustomWeather, © 2014

See weather overviewHow to use our weather pages